Miscellaneous Local Product
Issued by NWS North Platte, NE

Home | Current Version | Previous Version | Graphics & Text | Print | Product List | Glossary On
Versions: 1 2 3 4 5 6 7 8 9 10 11 12 13 14 15 16 17 18 19 20 21 22 23 24 25 26 27 28 29 30 31 32 33 34 35 36 37 38 39 40 41 42 43 44 45 46 47 48 49 50
000
AXUS43 KLBF 261110
MISLBF


WESTERN AND NORTH CENTRAL NEBRASKA HOURLY WEATHER ROUNDUP
NATIONAL WEATHER SERVICE NORTH PLATTE NE
600 AM CDT SUN MAR 26 2017

NOTE: "FAIR" INDICATES FEW OR NO CLOUDS BELOW 12,000 FEET WITH NO
SIGNIFICANT WEATHER AND/OR OBSTRUCTIONS TO VISIBILITY.

NOTE: STATIONS NOT REPORTING VARIABLES SUCH AS SKY/WEATHER OR
PRESSURE ARE PROVIDED BY RAWS AND APRS NETWORKS AND ARE NOT UNDER
NATIONAL WEATHER SERVICE QUALITY CONTROL.

...OBSERVATIONS IN AND NEAR THE EASTERN PANHANDLE OF NEBRASKA...

CITY           SKY/WX    TMP DP  RH WIND       PRES   REMARKS
PINE RIDGE     CLOUDY    46  32  58 CALM      29.80S
CHADRON        CLOUDY    46  33  60 N8        29.79S
ALLIANCE       PTCLDY    35  31  85 SE9       29.80S WCI  28
SIDNEY         CLOUDY    41  32  70 CALM      29.81F
CRESCENT LAKE    N/A     38  38 100 S5          N/A  WCI  34
$$

...OBSERVATIONS IN NORTHERN NEBRASKA AND FAR SOUTHERN SOUTH DAKOTA...

CITY           SKY/WX    TMP DP  RH WIND       PRES   REMARKS
WINNER         CLOUDY    40  38  93 SE5       29.87F
VALENTINE      CLOUDY    38  36  92 S8        29.85R WCI  32
THEDFORD       CLOUDY    39  38  99 S5        29.85S
AINSWORTH      CLOUDY    38  38 100 CALM      29.85S FOG
O`NEILL        FOG       39  39 100 CALM      29.88F VSB 1/4
ORD            CLOUDY    40  37  89 CALM      29.85F FOG
BROKEN BOW     CLOUDY    41  40  96 SW5       29.85S FOG
VALENTINE NWR    N/A     37  37 100 S6          N/A  WCI  32
HALSEY           N/A     38  38 100 CALM        N/A
BUTTE            N/A     37  36  97 CALM        N/A
CHAMBERS         N/A     39  38  99 CALM        N/A
EWING            N/A     38  38 100 CALM        N/A
$$

...OBSERVATIONS IN SOUTHWEST NEBRASKA AND FAR NORTHEAST COLORADO...

CITY           SKY/WX    TMP DP  RH WIND       PRES   REMARKS
WRAY           FAIR      39  39 100 E5        29.81F
HOLYOKE        FAIR      41  37  87 SE3       29.82S FOG
IMPERIAL       FOG       39  38  96 SE6       29.83S VSB 1/2 WCI  35
OGALLALA       CLOUDY    41  40  97 CALM      29.84S FOG
NORTH PLATTE   CLOUDY    40  37  89 VRB3      29.86R
MCCOOK         CLOUDY    40  40 100 SE6       29.85S FOG
LEXINGTON      CLOUDY    40  38  92 SE5       29.86S
STAPLETON        N/A     37  35  94 CALM        N/A
GOTHENBURG       N/A     41  36  81 S3          N/A
CALLAWAY         N/A     39  38  97 SW5         N/A
$$

...OBSERVATIONS IN CENTRAL LINCOLN COUNTY AREA...

CITY           SKY/WX    TMP DP  RH WIND       PRES   REMARKS
N.P. AIRPORT   CLOUDY    40  37  89 VRB3      29.86R
N.P. DOWNTOWN    N/A     40  38  93 CALM        N/A
N.P. SOUTHEAST   N/A     39  37  92 S3          N/A
N.P. HILLCREST   N/A     39  37  94 SW3         N/A
$$

...SOME OBSERVATIONS FROM AROUND THE REGION...

CITY           SKY/WX    TMP DP  RH WIND       PRES   REMARKS
DENVER         CLOUDY    44  33  65 N9        29.77F
LIMON          CLOUDY    38  33  82 E3        29.78F
ASPEN          CLOUDY    35  34  96 W3        29.87S
LARAMIE        FLURRIES  33  32  96 CALM      29.85S
CASPER         LGT RAIN  37  35  92 N9        29.90R WCI  30
CHEYENNE       CLOUDY    42  34  73 NE7       29.83R
SCOTTSBLUFF    CLOUDY    42  30  62 E6        29.79F
GRAND ISLAND   CLOUDY    38  38 100 N3        29.88F FOG
OMAHA          CLOUDY    40  37  89 N6        29.89S FOG
SIOUX FALLS    CLOUDY    38  37  97 N3        29.92R FOG
PIERRE         CLOUDY    40  37  89 SE6       29.88S
RAPID CITY     LGT RAIN  42  36  79 N18       29.83F
BISMARCK       CLOUDY    38  34  85 CALM      29.93S
KANSAS CITY    CLOUDY    43  41  93 CALM      29.89R
HILL CITY      CLOUDY    40  40 100 E6        29.87F FOG
WICHITA        CLOUDY    43  42  97 CALM      29.89R
DODGE CITY     FOG       37  37 100 E9        29.83F VSB 1/4 WCI  30
OKLAHOMA CITY  CLEAR     42  40  92 E6        29.86S
DALLAS         CLEAR     54  48  80 E7        29.85R
AMARILLO       CLOUDY    49  33  54 S13       29.78R
$$




USA.gov is the U.S. government's official web portal to all federal, state and local government web resources and services.